SCP
0 0 0 0 0 0 0 0 0 0 0 0 0 0 0 0 0 0 0 0 0 0 0 0 0 0 0 0 0 0 0 0 0 0 0 0 0 0 0 0 0 0 0 0
0 0 0 0 0 0 0 0 0 0 0 0 0 0 0 0 0 0 0 0 0 0 0 0 0 0 0 0 0 0 0 0 0 0 0 0 0 0 0 0 0 0 0 0
0 0 0 0 0 0 0 0 0 0 0 0 0 0 0 0 0 0 0 0 0 0 0 0 0 0 0 0 0 0 0 0 0 0 0 0 0 0 0 0 0 0 0 0
0 0 0 0 0 0 0 0 0 0 0 0 0 0 0 0 0 0 0 0 0 0 0 0 0 0 0 0 0 0 0 0 0 0 0 0 0 0 0 0 0 0 0 0
0 0 0 0 0 0 0 0 0 0 0 0 0 0 0 0 0 0 0 0 0 0 0 0 0 0 0 0 0 0 0 0 0 0 0 0 0 0 0 0 0 0 0 -0
0 0 0 0 0 0 0 0 0 0 0 0 0 0 0 0 0 0 0 0 0 0 0 0 0 0 0 0 0 0 0 0 0 0 0 0 0 0 0 0 0 0 0 0
0 0 0 0 0 0 0 0 0 0 0 0 0 0 0 0 0 0 0 0 0 0 0 0 0 0 0 0 0 0 0 0 0 0 0 0 0 0 0 0 0 0 0 0
0 0 0 0 0 0 -0 0 0 0 0 0 0 0 0 0 0 0 0 0 0 0 0 0 0 0 0 0 0 0 0 0 0 0 0 0 0 0 0 0 0 0 0 0
0 0 0 0 0 0 0 0 0 0 0 0 0 0 0 0 0 0 0 0 0 0 0 0 0 0 0 0 0 0 0 0 0 0 0 0 0 0 0 0 0 0 0 0
0 0 0 0 0 0 0 -0 0 0 0 0 0 0 0 0 0 0 0 0 0 0 0 0 0 0 0 0 0 0 0 0 0 0 0 0 0 0 0 0 0 0 0 0
0 0 0 0 0 0 0 0 0 0 0 0 0 0 0 0 0 0 0 0 0 0 0 0 0 0 0 0 0 0 0 0 0 0 0 0 0 0 0 0 0 0 0 0
0 0 0 0 0 0 0 0 0 0 0 0 0 0 0 0 0 0 0 0 0 0 0 0 0 0 0 0 0 0 0 0 0 0 0 0 0 0 0 0 0 0 0 0
0 0 0 0 0 0 0 0 0 0 0 0 0 0 0 0 0 0 0 0 0 0 0 0 0 0 0 0 0 0 0 0 0 0 0 0 0 0 0 0 0 0 0 0
0 -0 0 0 0 0 0 0 0 0 0 0 0 0 0 0 0 0 0 0 0 0 0 0 0 0 0 0 0 0 0 0 0 0 0 0 0 0 0 0 0 0 0 0
-0 0 -0 -0 -0 0 0 0 0 0 0 0 0 -0 0 0 0 0 0 0 0 0 0 0 0 0 0 0 0 0 0 0 0 0 0 0 0 0 0 0 0 0 0 0
0 -0 -0 -0 -0 -0 0 0 0 0 0 0 0 0 0 0 0 0 0 0 0 0 0 0 0 0 0 0 0 0 0 0 0 0 0 0 0 0 0 0 0 0 0 0
0 0 -0 -0 0 0 0 0 0 0 0 0 0 0 0 0 0 0 0 0 0 0 0 0 0 0 0 0 0 0 0 0 0 0 0 0 0 0 0 0 0 0 0 0
0 -0 0 -0 0 0 0 0 0 0 0 0 0 0 0 0 0 0 0 0 0 0 0 0 0 0 0 -0 -0 -0 0 0 0 0 0 0 0 0 0 0 0 0 0 0
0 -0 -0 -0 0 0 0 0 0 0 0 0 0 0 0 0 0 0 0 0 0 0 0 0 0 0 0 0 -0 0 0 0 0 0 0 0 0 0 0 0 0 0 0 0
0 0 -0 -0 0 0 0 0 0 0 0 0 0 0 0 0 0 0 0 0 0 0 0 0 0 0 0 0 0 0 0 0 0 0 0 0 0 0 0 0 0 0 0 0
0 0 0 0 0 0 0 -0 0 0 0 0 0 0 0 0 0 0 0 0 0 0 0 0 0 0 0 0 0 0 0 0 0 0 0 0 0 0 0 0 0 0 0 0
-0 0 0 0 0 0 0 0 0 0 0 0 0 0 0 0 0 0 0 0 0 0 0 0 0 0 0 0 0 0 0 0 0 0 0 0 0 0 0 0 0 0 0 0
0 0 0 0 0 0 0 0 0 0 0 0 0 0 0 0 0 0 0 0 0 0 0 0 0 0 -0 0 0 0 0 0 0 0 0 0 0 0 0 0 0 0 0 0
0 0 0 0 0 0 0 0 0 0 0 0 0 0 0 0 0 0 0 0 0 0 0 0 0 0 0 0 0 0 0 0 0 0 0 0 0 0 0 0 0 0 0 0
0 0 0 0 0 0 0 0 0 0 0 0 0 0 0 0 0 0 0 0 0 0 0 0 0 0 0 0 0 -0 -0 -0 0 0 0 0 0 0 0 0 0 0 0 0
0 0 0 0 0 0 0 -0 -0 0 0 0 0 0 0 0 0 0 0 0 0 0 0 0 0 0 -0 -0 0 0 0 0 0 0 -0 0 0 0 0 0 0 0 0 0
-0 -0 -0 0 0 0 -0 -0 -0 -0 -0 0 0 0 0 0 0 0 0 0 0 0 0 0 0 0 0 0 0 0 0 0 0 0 0 0 0 0 0 0 0 0 0 0
Wind_Speed_500mb
47 42 35 38 29 26 17 21 7 32 48 10 10 7 11 14 12 7 7 2 7 10 6 7 6 13 5 18 17 12 3 8 6 13 2 3 5 11 11 9 10 6 6 17
52 40 36 31 32 28 17 17 15 42 59 10 6 4 5 9 10 10 12 14 13 4 6 5 6 5 4 19 8 11 13 1 5 10 5 7 10 10 9 10 6 11 10 14
50 44 41 34 43 44 22 12 7 12 31 9 11 11 8 10 12 12 12 6 8 4 5 2 6 8 2 7 7 11 10 6 13 12 8 8 9 12 15 12 8 8 20 27
53 50 47 38 44 47 24 23 13 22 12 16 6 16 24 16 14 11 22 5 14 13 7 3 9 4 4 4 14 7 7 7 6 9 15 7 13 13 24 24 19 15 19 20
62 53 50 42 42 53 42 14 11 15 16 35 28 24 25 23 11 20 13 13 26 22 17 14 12 11 8 10 4 10 5 4 1 9 4 9 14 29 31 34 29 29 42 52
54 67 52 50 41 46 39 39 54 23 26 17 22 33 28 25 23 23 22 35 14 22 38 8 4 11 9 13 14 11 11 9 5 12 8 13 14 14 30 11 9 23 15 30
70 60 59 56 53 47 62 62 33 20 18 21 30 26 35 22 32 20 17 32 15 12 25 32 22 30 24 15 7 11 11 9 5 8 11 6 9 6 17 18 12 32 15 25
62 69 60 60 58 62 63 69 65 24 16 30 28 24 35 30 29 8 17 17 24 45 31 7 7 7 8 6 5 2 6 8 5 3 6 16 10 7 14 15 16 31 36 39
63 53 66 60 62 59 62 70 68 56 8 26 36 39 38 13 12 8 7 17 54 24 5 5 10 11 9 6 10 3 11 11 7 6 7 12 10 7 14 8 11 15 34 26
60 61 58 60 63 65 64 73 73 59 23 30 52 36 34 24 15 9 15 19 12 17 4 5 7 9 7 10 19 13 8 3 11 5 8 20 21 14 15 8 12 14 44 42
65 62 61 61 64 71 60 73 71 70 25 34 41 57 46 35 34 13 26 16 4 5 9 8 8 8 13 5 10 14 17 19 9 6 3 19 29 14 16 12 8 12 29 38
67 64 59 64 70 63 64 64 61 77 68 23 70 55 50 85 92 55 61 19 20 27 7 6 5 3 3 8 6 6 9 15 14 23 17 3 58 16 50 10 12 15 25 34
63 57 59 70 60 64 66 76 70 60 68 31 41 33 67 68 69 83 35 14 27 29 21 11 6 7 8 9 11 10 9 15 6 4 15 36 51 69 65 51 55 51 38 31
43 49 51 51 58 63 82 97 83 82 21 14 13 66 57 68 65 77 73 44 51 39 27 8 5 5 16 7 4 8 10 21 11 13 20 34 62 66 63 59 60 64 60 63
42 31 28 44 55 71 53 84 93 83 43 11 19 27 50 70 62 68 57 54 57 31 11 5 7 7 6 2 2 6 18 15 12 14 24 13 37 45 32 31 37 30 41 47
7 17 31 35 56 39 66 39 74 90 77 10 8 13 26 47 51 51 49 52 47 24 21 7 11 11 16 7 7 14 53 58 64 39 57 64 79 60 56 47 48 39 37 38
16 19 27 36 48 13 28 12 22 77 68 17 7 4 14 41 48 43 48 49 22 14 17 12 12 9 15 4 10 12 34 51 73 82 83 74 80 62 55 39 36 37 36 38
14 11 20 28 33 34 15 13 49 61 31 19 9 4 7 30 14 11 17 15 16 14 12 12 6 11 8 11 14 50 77 86 87 96 92 105 90 87 75 61 52 49 46 45
9 11 16 25 11 9 21 22 14 22 7 8 6 16 9 21 8 15 9 11 5 6 4 5 16 5 14 15 31 52 62 65 69 59 58 60 75 75 77 78 75 72 72 58
5 7 9 12 13 18 3 22 7 6 6 4 5 18 7 17 10 6 10 8 7 7 5 17 5 10 41 41 56 69 100 103 75 66 66 77 76 70 65 60 67 76 74 60
6 4 1 6 20 18 2 2 6 6 3 11 9 11 11 11 6 6 3 6 5 6 7 8 6 9 15 72 87 99 113 101 99 95 99 89 84 74 61 61 58 54 59 58
6 5 2 6 5 4 6 0 1 5 4 4 8 14 15 15 12 7 4 6 4 7 11 4 8 12 59 66 64 55 48 45 54 57 65 68 74 75 76 71 66 41 28 32
6 2 2 1 3 5 4 7 1 4 5 15 17 8 14 12 10 7 5 8 5 12 3 9 12 23 41 29 21 23 26 35 45 48 43 48 53 57 63 66 68 54 37 28
6 11 5 8 5 8 9 7 7 4 1 37 18 10 5 12 5 4 10 3 4 4 5 16 7 42 33 26 28 23 16 19 24 28 37 41 41 43 46 53 60 68 70 62
7 9 9 11 13 8 9 7 8 13 18 31 12 9 6 5 8 3 10 7 11 15 14 8 20 28 23 16 16 16 15 19 25 31 35 34 36 38 43 44 49 59 69 67
9 10 2 4 5 5 8 12 11 7 19 31 20 5 6 4 11 8 16 17 14 10 8 26 19 17 7 5 11 16 21 25 28 30 33 33 27 29 40 42 43 43 56 61
9 6 27 20 7 10 18 14 15 13 16 14 6 11 10 7 6 4 9 12 8 13 14 14 14 10 13 13 20 19 20 23 27 27 27 29 29 26 24 25 31 35 42 49
Wind_Direction_500mb
282 288 288 256 247 237 245 218 232 184 177 157 180 197 191 171 152 182 112 32 223 211 196 216 245 218 235 165 152 144 147 139 198 214 299 191 198 168 147 124 241 218 160 268
272 274 280 276 237 209 263 229 199 182 180 196 197 211 167 182 138 176 169 191 206 136 235 253 192 196 1 154 135 158 185 308 1 330 357 352 226 194 136 114 93 203 140 262
266 266 267 273 243 216 273 213 175 169 203 233 171 147 194 171 206 156 151 157 126 142 247 148 259 176 133 153 121 130 135 121 184 204 202 129 198 192 174 133 137 191 228 268
255 260 260 259 247 235 269 229 214 188 184 216 187 182 172 151 165 200 161 209 229 165 206 278 229 139 108 40 163 111 121 198 189 254 245 232 233 211 188 202 192 185 268 223
263 251 250 250 267 251 261 265 195 186 164 171 184 198 191 160 168 160 198 221 194 186 187 201 190 139 198 195 172 155 137 247 141 287 286 204 254 228 216 224 228 255 262 278
260 252 240 246 256 248 257 258 259 222 189 164 193 213 202 190 154 209 182 199 135 193 225 208 277 191 160 171 155 163 154 140 94 269 332 295 291 228 188 191 213 210 200 236
267 250 244 244 245 254 259 252 275 226 219 196 207 172 183 176 196 182 167 163 149 189 162 126 90 71 82 94 51 152 143 118 101 263 348 326 252 139 181 202 202 206 257 260
280 262 247 242 244 251 254 259 254 270 239 200 193 186 179 184 173 103 143 167 166 146 132 97 58 350 20 318 21 53 146 131 114 217 214 295 284 167 160 178 281 205 220 251
272 258 244 235 246 250 254 257 256 242 283 214 175 180 180 165 150 113 104 147 157 158 106 138 169 195 197 273 350 331 87 76 118 91 177 225 238 152 165 131 295 202 196 234
264 261 256 255 250 256 254 256 247 232 247 235 191 184 180 155 134 117 134 141 155 154 136 160 173 225 153 183 171 167 141 100 176 192 238 282 245 154 146 87 240 182 202 223
262 254 252 253 253 254 256 251 246 225 243 226 214 203 171 157 164 139 146 106 156 127 196 179 204 179 214 144 178 176 166 157 184 108 113 273 156 114 175 211 207 227 222 225
252 248 251 250 255 251 259 255 239 233 238 246 227 233 220 208 203 179 169 174 156 166 160 210 140 186 117 155 236 150 228 194 178 192 210 283 188 207 214 221 234 251 239 233
241 245 246 255 247 251 245 246 237 224 224 217 209 220 216 206 210 207 158 196 166 178 190 155 163 211 134 166 234 190 239 190 236 132 230 236 235 240 252 256 262 267 263 254
249 246 244 260 255 272 254 240 228 224 240 187 200 220 232 210 210 209 208 200 181 173 167 124 143 197 189 207 198 186 190 147 200 265 279 284 270 254 266 275 274 268 267 261
256 239 268 282 270 293 231 216 218 218 212 176 147 182 212 221 207 205 205 204 180 159 149 139 202 175 147 89 65 245 187 185 186 231 207 228 271 286 287 275 276 280 272 266
255 271 288 300 303 218 182 184 213 211 206 183 136 175 186 196 193 197 191 188 176 174 149 178 199 197 186 191 214 247 219 225 233 249 268 271 274 277 279 274 277 275 269 270
288 286 295 309 333 9 156 141 181 205 191 181 116 102 131 168 168 164 170 176 168 158 158 175 164 188 194 236 226 227 250 255 251 252 258 268 266 265 275 271 270 263 263 260
272 279 295 308 323 359 70 118 139 177 188 158 119 94 159 164 154 126 136 137 145 170 144 136 171 153 205 249 241 238 248 253 256 260 255 258 265 269 269 271 265 258 254 259
263 280 294 313 347 11 55 31 58 157 114 109 130 146 177 168 114 111 124 136 143 149 130 174 163 170 229 215 216 233 243 241 244 255 260 266 262 267 270 266 261 258 260 256
296 311 325 336 10 347 131 156 95 73 81 196 102 126 154 157 146 109 119 159 141 176 193 141 194 251 251 243 250 263 270 266 263 256 258 257 258 257 262 270 274 262 261 262
206 164 151 307 311 317 36 152 120 142 196 144 124 136 134 164 122 124 194 148 161 137 235 150 258 269 243 253 248 257 264 264 264 266 269 267 266 271 267 269 282 267 256 250
159 92 9 264 258 302 19 242 11 159 198 136 138 146 111 140 147 118 174 118 90 193 139 122 265 248 255 254 247 257 264 265 268 272 275 271 267 265 263 260 260 253 251 250
228 325 293 246 239 28 163 217 180 113 158 167 165 125 125 123 83 67 93 96 170 123 103 224 233 255 255 259 273 280 266 268 284 274 275 280 276 267 258 256 247 245 247 254
200 156 268 175 237 240 192 188 176 48 169 159 141 92 109 99 78 143 105 68 120 152 222 232 244 240 253 286 290 306 308 287 294 293 288 287 283 269 256 252 246 242 247 252
244 183 218 201 219 207 132 125 103 67 32 153 145 59 106 120 130 54 100 104 225 212 222 217 234 243 262 293 307 319 321 316 311 313 319 307 279 265 258 255 254 245 241 244
247 260 254 215 105 315 148 114 88 53 10 218 182 168 132 177 145 130 207 152 216 242 207 223 233 230 245 293 331 327 327 322 319 317 321 323 315 286 269 260 252 244 235 233
237 246 222 217 238 203 208 233 237 301 282 229 168 209 183 94 83 265 189 207 206 238 243 219 187 223 229 276 303 319 326 323 320 322 317 312 313 306 294 283 263 249 244 240
Wind_Speed_850mb
47 42 35 38 29 26 17 21 7 32 48 10 10 7 11 14 12 7 7 2 7 10 6 7 6 13 5 18 17 12 3 8 6 13 2 3 5 11 11 9 10 6 6 17
52 40 36 31 32 28 17 17 15 42 59 10 6 4 5 9 10 10 12 14 13 4 6 5 6 5 4 19 8 11 13 1 5 10 5 7 10 10 9 10 6 11 10 14
50 44 41 34 43 44 22 12 7 12 31 9 11 11 8 10 12 12 12 6 8 4 5 2 6 8 2 7 7 11 10 6 13 12 8 8 9 12 15 12 8 8 20 27
53 50 47 38 44 47 24 23 13 22 12 16 6 16 24 16 14 11 22 5 14 13 7 3 9 4 4 4 14 7 7 7 6 9 15 7 13 13 24 24 19 15 19 20
62 53 50 42 42 53 42 14 11 15 16 35 28 24 25 23 11 20 13 13 26 22 17 14 12 11 8 10 4 10 5 4 1 9 4 9 14 29 31 34 29 29 42 52
54 67 52 50 41 46 39 39 54 23 26 17 22 33 28 25 23 23 22 35 14 22 38 8 4 11 9 13 14 11 11 9 5 12 8 13 14 14 30 11 9 23 15 30
70 60 59 56 53 47 62 62 33 20 18 21 30 26 35 22 32 20 17 32 15 12 25 32 22 30 24 15 7 11 11 9 5 8 11 6 9 6 17 18 12 32 15 25
62 69 60 60 58 62 63 69 65 24 16 30 28 24 35 30 29 8 17 17 24 45 31 7 7 7 8 6 5 2 6 8 5 3 6 16 10 7 14 15 16 31 36 39
63 53 66 60 62 59 62 70 68 56 8 26 36 39 38 13 12 8 7 17 54 24 5 5 10 11 9 6 10 3 11 11 7 6 7 12 10 7 14 8 11 15 34 26
60 61 58 60 63 65 64 73 73 59 23 30 52 36 34 24 15 9 15 19 12 17 4 5 7 9 7 10 19 13 8 3 11 5 8 20 21 14 15 8 12 14 44 42
65 62 61 61 64 71 60 73 71 70 25 34 41 57 46 35 34 13 26 16 4 5 9 8 8 8 13 5 10 14 17 19 9 6 3 19 29 14 16 12 8 12 29 38
67 64 59 64 70 63 64 64 61 77 68 23 70 55 50 85 92 55 61 19 20 27 7 6 5 3 3 8 6 6 9 15 14 23 17 3 58 16 50 10 12 15 25 34
63 57 59 70 60 64 66 76 70 60 68 31 41 33 67 68 69 83 35 14 27 29 21 11 6 7 8 9 11 10 9 15 6 4 15 36 51 69 65 51 55 51 38 31
43 49 51 51 58 63 82 97 83 82 21 14 13 66 57 68 65 77 73 44 51 39 27 8 5 5 16 7 4 8 10 21 11 13 20 34 62 66 63 59 60 64 60 63
42 31 28 44 55 71 53 84 93 83 43 11 19 27 50 70 62 68 57 54 57 31 11 5 7 7 6 2 2 6 18 15 12 14 24 13 37 45 32 31 37 30 41 47
7 17 31 35 56 39 66 39 74 90 77 10 8 13 26 47 51 51 49 52 47 24 21 7 11 11 16 7 7 14 53 58 64 39 57 64 79 60 56 47 48 39 37 38
16 19 27 36 48 13 28 12 22 77 68 17 7 4 14 41 48 43 48 49 22 14 17 12 12 9 15 4 10 12 34 51 73 82 83 74 80 62 55 39 36 37 36 38
14 11 20 28 33 34 15 13 49 61 31 19 9 4 7 30 14 11 17 15 16 14 12 12 6 11 8 11 14 50 77 86 87 96 92 105 90 87 75 61 52 49 46 45
9 11 16 25 11 9 21 22 14 22 7 8 6 16 9 21 8 15 9 11 5 6 4 5 16 5 14 15 31 52 62 65 69 59 58 60 75 75 77 78 75 72 72 58
5 7 9 12 13 18 3 22 7 6 6 4 5 18 7 17 10 6 10 8 7 7 5 17 5 10 41 41 56 69 100 103 75 66 66 77 76 70 65 60 67 76 74 60
6 4 1 6 20 18 2 2 6 6 3 11 9 11 11 11 6 6 3 6 5 6 7 8 6 9 15 72 87 99 113 101 99 95 99 89 84 74 61 61 58 54 59 58
6 5 2 6 5 4 6 0 1 5 4 4 8 14 15 15 12 7 4 6 4 7 11 4 8 12 59 66 64 55 48 45 54 57 65 68 74 75 76 71 66 41 28 32
6 2 2 1 3 5 4 7 1 4 5 15 17 8 14 12 10 7 5 8 5 12 3 9 12 23 41 29 21 23 26 35 45 48 43 48 53 57 63 66 68 54 37 28
6 11 5 8 5 8 9 7 7 4 1 37 18 10 5 12 5 4 10 3 4 4 5 16 7 42 33 26 28 23 16 19 24 28 37 41 41 43 46 53 60 68 70 62
7 9 9 11 13 8 9 7 8 13 18 31 12 9 6 5 8 3 10 7 11 15 14 8 20 28 23 16 16 16 15 19 25 31 35 34 36 38 43 44 49 59 69 67
9 10 2 4 5 5 8 12 11 7 19 31 20 5 6 4 11 8 16 17 14 10 8 26 19 17 7 5 11 16 21 25 28 30 33 33 27 29 40 42 43 43 56 61
9 6 27 20 7 10 18 14 15 13 16 14 6 11 10 7 6 4 9 12 8 13 14 14 14 10 13 13 20 19 20 23 27 27 27 29 29 26 24 25 31 35 42 49
Wind_Direction_850mb
282 288 288 256 247 237 245 218 232 184 177 157 180 197 191 171 152 182 112 32 223 211 196 216 245 218 235 165 152 144 147 139 198 214 299 191 198 168 147 124 241 218 160 268
272 274 280 276 237 209 263 229 199 182 180 196 197 211 167 182 138 176 169 191 206 136 235 253 192 196 1 154 135 158 185 308 1 330 357 352 226 194 136 114 93 203 140 262
266 266 267 273 243 216 273 213 175 169 203 233 171 147 194 171 206 156 151 157 126 142 247 148 259 176 133 153 121 130 135 121 184 204 202 129 198 192 174 133 137 191 228 268
255 260 260 259 247 235 269 229 214 188 184 216 187 182 172 151 165 200 161 209 229 165 206 278 229 139 108 40 163 111 121 198 189 254 245 232 233 211 188 202 192 185 268 223
263 251 250 250 267 251 261 265 195 186 164 171 184 198 191 160 168 160 198 221 194 186 187 201 190 139 198 195 172 155 137 247 141 287 286 204 254 228 216 224 228 255 262 278
260 252 240 246 256 248 257 258 259 222 189 164 193 213 202 190 154 209 182 199 135 193 225 208 277 191 160 171 155 163 154 140 94 269 332 295 291 228 188 191 213 210 200 236
267 250 244 244 245 254 259 252 275 226 219 196 207 172 183 176 196 182 167 163 149 189 162 126 90 71 82 94 51 152 143 118 101 263 348 326 252 139 181 202 202 206 257 260
280 262 247 242 244 251 254 259 254 270 239 200 193 186 179 184 173 103 143 167 166 146 132 97 58 350 20 318 21 53 146 131 114 217 214 295 284 167 160 178 281 205 220 251
272 258 244 235 246 250 254 257 256 242 283 214 175 180 180 165 150 113 104 147 157 158 106 138 169 195 197 273 350 331 87 76 118 91 177 225 238 152 165 131 295 202 196 234
264 261 256 255 250 256 254 256 247 232 247 235 191 184 180 155 134 117 134 141 155 154 136 160 173 225 153 183 171 167 141 100 176 192 238 282 245 154 146 87 240 182 202 223
262 254 252 253 253 254 256 251 246 225 243 226 214 203 171 157 164 139 146 106 156 127 196 179 204 179 214 144 178 176 166 157 184 108 113 273 156 114 175 211 207 227 222 225
252 248 251 250 255 251 259 255 239 233 238 246 227 233 220 208 203 179 169 174 156 166 160 210 140 186 117 155 236 150 228 194 178 192 210 283 188 207 214 221 234 251 239 233
241 245 246 255 247 251 245 246 237 224 224 217 209 220 216 206 210 207 158 196 166 178 190 155 163 211 134 166 234 190 239 190 236 132 230 236 235 240 252 256 262 267 263 254
249 246 244 260 255 272 254 240 228 224 240 187 200 220 232 210 210 209 208 200 181 173 167 124 143 197 189 207 198 186 190 147 200 265 279 284 270 254 266 275 274 268 267 261
256 239 268 282 270 293 231 216 218 218 212 176 147 182 212 221 207 205 205 204 180 159 149 139 202 175 147 89 65 245 187 185 186 231 207 228 271 286 287 275 276 280 272 266
255 271 288 300 303 218 182 184 213 211 206 183 136 175 186 196 193 197 191 188 176 174 149 178 199 197 186 191 214 247 219 225 233 249 268 271 274 277 279 274 277 275 269 270
288 286 295 309 333 9 156 141 181 205 191 181 116 102 131 168 168 164 170 176 168 158 158 175 164 188 194 236 226 227 250 255 251 252 258 268 266 265 275 271 270 263 263 260
272 279 295 308 323 359 70 118 139 177 188 158 119 94 159 164 154 126 136 137 145 170 144 136 171 153 205 249 241 238 248 253 256 260 255 258 265 269 269 271 265 258 254 259
263 280 294 313 347 11 55 31 58 157 114 109 130 146 177 168 114 111 124 136 143 149 130 174 163 170 229 215 216 233 243 241 244 255 260 266 262 267 270 266 261 258 260 256
296 311 325 336 10 347 131 156 95 73 81 196 102 126 154 157 146 109 119 159 141 176 193 141 194 251 251 243 250 263 270 266 263 256 258 257 258 257 262 270 274 262 261 262
206 164 151 307 311 317 36 152 120 142 196 144 124 136 134 164 122 124 194 148 161 137 235 150 258 269 243 253 248 257 264 264 264 266 269 267 266 271 267 269 282 267 256 250
159 92 9 264 258 302 19 242 11 159 198 136 138 146 111 140 147 118 174 118 90 193 139 122 265 248 255 254 247 257 264 265 268 272 275 271 267 265 263 260 260 253 251 250
228 325 293 246 239 28 163 217 180 113 158 167 165 125 125 123 83 67 93 96 170 123 103 224 233 255 255 259 273 280 266 268 284 274 275 280 276 267 258 256 247 245 247 254
200 156 268 175 237 240 192 188 176 48 169 159 141 92 109 99 78 143 105 68 120 152 222 232 244 240 253 286 290 306 308 287 294 293 288 287 283 269 256 252 246 242 247 252
244 183 218 201 219 207 132 125 103 67 32 153 145 59 106 120 130 54 100 104 225 212 222 217 234 243 262 293 307 319 321 316 311 313 319 307 279 265 258 255 254 245 241 244
247 260 254 215 105 315 148 114 88 53 10 218 182 168 132 177 145 130 207 152 216 242 207 223 233 230 245 293 331 327 327 322 319 317 321 323 315 286 269 260 252 244 235 233
237 246 222 217 238 203 208 233 237 301 282 229 168 209 183 94 83 265 189 207 206 238 243 219 187 223 229 276 303 319 326 323 320 322 317 312 313 306 294 283 263 249 244 240